Location: Unnamed
(47.6264°N, 122.3366°W)
Time: 16:26:30
(UTC-08:00)

XW-2D - Pass Details

Date: 02 December 2023
Orbit: 440 x 449 km, 97.5° (Epoch: 02 March)

Event Time Altitude Azimuth Distance (km) Brightness Sun altitude
Rises 18:01:01 0° 172° (S) 2,479 ? -16.4°
Reaches altitude 10° 18:03:03 10° 175° (S) 1,616 ? -16.8°
Maximum altitude 18:06:30 66° 258° (WSW) 519 ? -17.3°
Drops below altitude 10° 18:10:02 10° 342° (NNW) 1,653 ? -17.9°
Sets 18:12:08 0° 345° (NNW) 2,542 ? -18.3°
